YZ-1S DEB, 43644

Orbit data source: Space-Track

YZ-1S DEB, 43644 is space debris in SSO originally from a launch on Tue, 09 Oct 2018 UTC launched from the Jiuquan Satellite Launch Center, China (JSC). Debris objects in space refer to the collection of defunct objects orbiting the Earth. Examples of debris include non-operational satellites, rocket bodies, and fragments generated from explosions, collisions, or faulty payload assembly.

Loading next visibility...
Identifier
43644, 2018-077C
Orbit
SSO
Country
Flag of CNCN / PRC
Related business
Manufacturer
CALT
Mission
Spacecraft
Bus & Motor
Unknown
Mass
~200 kg wet, ~200 kg dry
Launch date (UTC)
2018-10-09 (8 years ago)
Launch vehicle
Unknown
Launch site
Jiuquan Satellite Launch Center, China (JSC)
Object type
Payload
Rocket body
Debris
Shape & HBR
Cyl + Cone, 1.5 m
Radar Cross Section
8.247 m², Large (>1 m²)

Expand to show TLE details & history
Last TLE update: 7 hours ago

TLE from 7 hours ago
0 YZ-1S DEB
1 43644U 18077C   26125.05640904  .00002166  00000-0  35047-3 0  9995
2 43644  97.9223 168.3030 0006876 186.8825 173.2289 14.72273305404296
Epoch: 2026-05-05T01:21Z
TLE epoch observation values (Epoch: 2026-05-05T01:21:13.741Z)
Latitude
-0.00003°
Longitude
-74.94098°
Altitude
661.633 km
Speed
7.524 km/s
True Right ascension
11h 13m 12s
True Declination
0° 00' 00"
Sunlit
Object was in full shadow at epoch
Visualization orbit readout
Latitude
Unknown
Longitude
Unknown
Altitude
Unknown
Speed
Unknown
Apparent Right ascension
Unknown
Apparent Declination
Unknown
Sunlit
N/A
Visualization observer readout
Local Sidereal Time
16:36:43
Azimuth
Unknown
Elevation
Unknown
Doppler factor
Unknown
Orbital elements
Apogee altitude
655.705 km
Perigee altitude
646.039 km
Semi-major axis
7,029.009 km
Eccentricity
0.00069
Inclination
97.9223°
RAAN
168.303°
Arg. of periapsis
186.8825°
True anomaly
173.23818°
Mean anomaly
173.2289°
Eccentric anomaly
173.23354°
Mean motion
3.683 °/min
Orbital period
97.75 mins
BSTAR
0.00035047
Loading maneuver chart data...
Computing Atmospheric mass density...
Loading historical data...
Loading historical data...
Loading historical data...
Loading historical data...
Loading historical data...
Loading historical data...
Loading historical data...
Other satellites on launch #77 in the year 2018 (2018-10-09 UTC)

Documentation

Showing up to 5 results
|